Temperature
15 17 18 18 18 19 19 19 20 19 19 19 18 17 16 15 14 14 14 14 13 13 13 13 13 12 12 12 12 12 12 12 12 11 11 12 12 12 13 13 13 13 13
15 16 17 18 18 19 19 19 19 19 19 18 17 16 14 13 13 13 13 13 13 13 13 12 12 12 12 12 12 11 11 11 11 10 10 10 11 12 13 13 13 13 13
15 15 16 17 17 18 18 18 18 18 17 16 16 15 14 13 13 13 13 12 12 12 12 11 11 11 11 11 11 11 10 10 10 10 10 10 10 10 11 12 12 12 12
14 15 15 16 16 16 16 16 16 16 15 15 14 14 13 13 12 12 12 11 11 11 11 11 11 11 11 10 10 10 10 9 9 9 9 9 9 9 9 10 10 11 11
14 14 14 15 15 15 15 15 15 14 14 13 13 13 12 12 12 12 12 12 11 11 11 11 11 10 10 10 9 9 9 9 8 8 8 8 8 8 7 8 8 9 9
13 13 13 14 14 14 14 14 14 13 13 13 12 12 12 12 12 12 12 12 11 11 11 10 10 9 9 8 8 8 8 8 8 8 7 7 6 6 6 5 6 7 7
13 13 13 13 13 13 13 13 13 12 12 12 12 12 11 11 11 11 11 11 10 10 10 9 9 8 8 7 7 7 7 7 6 6 6 6 5 5 4 4 5 5 6
13 13 13 13 13 13 13 12 12 12 11 11 11 11 11 10 10 10 9 9 9 8 8 8 7 7 7 7 6 6 5 5 4 4 4 4 4 4 4 4 4 4 5
13 13 12 13 13 12 12 12 11 11 11 11 10 10 10 10 9 9 9 8 8 7 7 6 6 6 6 6 5 5 4 4 3 3 3 3 3 3 3 3 3 3 3
13 12 12 12 12 12 11 11 11 10 10 10 10 9 9 9 9 8 8 7 6 6 6 6 5 5 5 5 5 4 4 3 2 2 2 2 2 2 2 2 2 2 1
13 13 12 12 11 11 10 10 10 9 9 9 9 8 8 8 7 7 6 6 5 5 5 5 5 5 4 4 4 3 3 2 1 1 0 0 -0 0 0 1 1 1 1
13 12 11 11 10 10 9 9 9 9 8 8 8 7 7 6 6 5 5 5 5 5 4 4 4 4 4 3 3 2 2 1 -0 -1 -2 -2 -2 -1 -1 -1 -0 -0 -1
12 12 11 10 10 9 9 8 8 8 7 7 6 6 5 5 5 4 4 4 4 4 4 4 3 3 3 3 2 2 1 0 -1 -2 -3 -3 -2 -2 -2 -2 -2 -2 -2
12 11 10 9 9 8 8 7 7 7 6 6 5 5 4 4 4 4 3 3 3 3 3 3 2 2 2 2 1 1 0 -1 -2 -3 -3 -3 -3 -3 -3 -3 -3 -3 -3
11 10 9 9 8 7 7 7 6 6 5 5 4 4 3 3 3 3 3 3 2 2 2 2 1 1 1 0 -1 -1 -2 -3 -3 -3 -3 -4 -4 -5 -4 -4 -4 -4 -4
10 9 9 8 7 6 6 6 5 5 4 4 3 3 3 2 2 2 2 2 2 1 1 1 0 -0 -1 -1 -2 -4 -4 -4 -5 -5 -4 -5 -5 -6 -5 -5 -5 -5 -4
11 9 8 7 6 6 5 5 4 4 3 3 2 2 2 2 2 1 1 1 1 0 0 -0 -1 -1 -2 -3 -4 -5 -6 -6 -6 -6 -6 -6 -6 -6 -6 -6 -5 -5 -5
11 9 7 6 5 5 4 4 3 3 2 2 2 1 1 1 1 1 0 0 -0 -1 -1 -2 -2 -3 -3 -4 -5 -7 -7 -7 -6 -6 -6 -6 -6 -6 -6 -6 -6 -6 -6
9 7 6 5 5 4 3 3 2 2 1 1 1 1 0 0 -0 -0 -1 -1 -2 -2 -3 -3 -4 -4 -4 -5 -7 -7 -7 -7 -7 -7 -7 -7 -7 -7 -7 -6 -7 -7 -6
7 6 5 5 4 3 2 2 1 1 1 1 0 -0 -0 -1 -1 -1 -2 -3 -3 -4 -4 -4 -4 -5 -6 -7 -8 -8 -8 -7 -7 -7 -7 -7 -7 -7 -7 -7 -7 -7 -7
6 5 4 4 3 2 1 1 0 0 0 -0 -0 -1 -1 -2 -2 -2 -3 -4 -4 -4 -4 -4 -4 -6 -7 -8 -8 -8 -8 -8 -7 -8 -8 -8 -8 -7 -8 -8 -8 -9 -8
5 4 3 3 2 1 0 -0 -0 -0 -1 -1 -1 -1 -2 -2 -3 -3 -4 -4 -5 -5 -5 -6 -6 -7 -8 -9 -9 -8 -8 -8 -8 -8 -8 -8 -8 -8 -8 -9 -9 -9 -9
4 3 2 1 0 -0 -1 -1 -1 -1 -1 -1 -1 -2 -2 -3 -4 -4 -4 -5 -5 -6 -7 -8 -9 -9 -9 -9 -9 -9 -8 -8 -8 -8 -8 -8 -9 -9 -10 -10 -10 -10 -10
2 2 1 0 -1 -1 -1 -1 -1 -1 -1 -2 -2 -3 -3 -3 -4 -4 -5 -6 -7 -8 -9 -9 -9 -9 -9 -9 -9 -9 -9 -9 -9 -9 -8 -9 -10 -10 -10 -11 -11 -11 -10
1 1 0 -0 -1 -1 -1 -2 -2 -2 -2 -3 -3 -4 -4 -4 -5 -5 -6 -7 -8 -10 -10 -10 -10 -9 -9 -10 -9 -9 -9 -9 -9 -9 -9 -10 -11 -11 -11 -11 -11 -11 -11
0 -0 -1 -1 -1 -1 -1 -2 -2 -3 -3 -4 -4 -4 -5 -5 -6 -7 -7 -8 -9 -10 -10 -10 -10 -10 -10 -10 -9 -9 -9 -9 -10 -10 -11 -11 -11 -11 -11 -11 -11 -11 -11
Wind_Speed
5 8 9 9 9 10 11 11 12 10 6 4 3 2 1 2 2 3 4 5 5 6 4 5 7 6 6 9 9 9 10 10 8 8 10 11 12 13 13 14 14 15 17
7 9 9 9 10 10 11 14 14 13 9 5 4 3 4 4 4 6 8 9 8 8 5 6 5 6 6 8 8 8 8 8 6 5 6 7 6 9 12 12 13 15 14
7 6 7 8 9 11 11 12 13 13 12 9 6 6 5 5 6 7 8 8 10 12 9 10 8 8 7 6 8 7 8 9 7 6 7 8 8 5 6 9 11 13 12
6 5 6 8 9 8 8 10 12 13 12 11 12 12 9 7 6 5 6 8 8 10 11 8 9 8 7 8 8 8 7 8 8 7 6 9 10 11 8 5 7 9 11
7 7 7 7 7 7 8 9 12 13 12 12 11 11 10 6 5 6 9 9 9 8 11 9 9 9 7 8 8 8 8 6 6 7 8 9 9 9 11 14 9 8 8
7 6 6 7 8 8 9 9 12 12 11 12 12 12 11 10 10 10 10 8 6 7 11 10 9 9 8 9 8 8 9 7 8 7 7 8 7 9 9 13 16 13 10
7 7 7 7 8 8 8 9 11 11 10 12 12 11 10 10 10 9 9 9 8 6 11 10 10 10 10 9 9 9 9 9 9 8 8 7 8 8 10 12 14 16 12
7 7 7 7 8 8 8 9 10 10 9 10 10 10 9 7 7 7 7 7 7 7 10 10 10 11 11 11 10 8 9 9 9 10 10 8 8 9 9 10 12 15 13
9 8 7 7 8 8 8 8 9 9 9 8 9 9 8 8 7 7 7 6 6 8 9 9 10 10 11 11 11 9 11 10 9 10 10 10 10 9 9 9 9 11 16
8 8 7 7 7 7 7 8 9 9 8 8 8 8 8 8 7 7 8 8 8 8 9 9 10 10 10 11 11 11 10 10 10 10 12 12 10 10 8 7 8 9 12
9 8 7 7 7 7 7 8 8 8 7 7 7 8 8 7 7 7 7 7 7 8 9 10 10 11 11 12 12 11 11 13 13 11 13 14 13 10 9 9 9 8 9
7 8 8 8 7 7 7 7 7 7 7 7 7 8 7 7 7 7 7 7 8 8 8 9 9 10 11 11 11 11 12 13 14 13 12 13 12 12 11 11 11 9 7
8 7 8 7 7 7 7 7 7 7 6 6 7 7 7 7 7 8 8 8 8 9 9 9 10 11 12 12 10 10 12 12 12 11 12 14 13 12 12 13 12 8 9
8 8 7 7 7 6 6 6 6 6 5 6 6 6 7 7 7 7 8 8 8 9 10 11 10 11 13 11 11 14 13 12 11 10 11 13 13 15 15 14 11 10 11
8 8 8 7 6 6 6 5 5 4 4 5 5 5 6 6 7 7 8 8 8 10 10 11 11 11 12 12 17 16 16 14 14 13 12 13 20 23 20 18 16 16 14
8 8 8 8 7 6 5 4 4 3 3 4 4 5 6 7 7 8 8 8 9 10 10 11 13 13 14 23 26 22 15 15 15 17 16 16 16 21 28 30 28 26 21
7 9 9 8 7 6 5 4 3 2 3 4 5 6 7 7 7 9 9 9 9 10 11 11 12 13 16 25 27 27 19 14 15 16 16 17 18 23 16 23 28 25 31
7 9 8 7 6 5 4 4 3 3 4 5 6 6 7 7 7 8 8 9 9 10 10 12 13 13 17 25 27 28 16 13 14 15 15 16 16 18 23 21 20 19 20
7 8 7 6 6 5 4 3 3 4 5 5 6 7 7 7 8 9 9 9 9 11 10 12 12 14 17 24 27 27 14 13 14 14 14 17 16 27 33 25 23 23 20
7 7 7 7 6 4 4 4 3 4 5 6 7 7 7 7 8 9 8 8 9 11 13 13 12 13 14 22 26 27 14 15 14 13 13 20 24 30 34 24 22 22 21
7 8 8 6 5 4 3 2 3 4 5 6 7 7 7 8 8 7 7 10 11 12 12 14 13 11 15 20 25 27 16 15 16 15 14 14 28 33 35 31 19 24 27
7 7 7 6 4 3 2 2 4 5 6 6 7 7 8 8 9 9 9 9 10 12 13 13 14 10 10 17 22 28 26 25 18 16 15 17 30 33 34 26 27 33 27
6 5 6 5 3 3 2 3 5 6 6 7 7 8 9 8 8 9 10 10 9 10 12 12 13 12 9 13 25 27 28 29 19 16 25 26 29 30 22 26 32 26 16
6 5 5 3 1 1 2 3 6 6 6 7 8 8 8 9 8 7 7 8 9 10 13 13 14 14 13 11 11 14 16 21 19 17 18 23 26 23 24 23 19 15 15
5 5 4 2 1 3 4 5 6 6 6 8 8 8 8 8 8 8 7 10 8 12 15 13 13 14 15 18 28 23 17 17 19 21 12 11 14 14 15 15 14 14 15
5 4 3 0 3 4 6 7 6 6 7 7 7 7 7 7 8 10 11 15 16 22 23 22 21 17 22 29 30 30 30 31 31 23 15 14 14 15 17 17 17 16 16
Wind_Direction
30 24 24 20 25 24 27 30 34 27 43 68 79 73 354 341 337 329 311 304 294 286 264 275 285 286 280 282 281 278 280 280 277 280 283 276 262 258 257 254 254 254 252
55 36 28 27 31 31 31 38 38 36 38 54 69 79 78 51 41 34 33 28 27 21 15 355 337 327 315 311 307 298 291 287 270 261 282 286 270 249 248 248 249 251 250
106 75 51 41 38 37 34 45 43 43 41 44 56 55 52 44 33 28 31 29 38 38 33 26 18 7 2 346 334 327 315 310 299 258 266 288 288 282 253 247 249 249 248
128 112 86 62 48 40 41 50 51 50 45 48 62 66 66 59 32 24 26 26 28 30 23 16 11 4 0 354 348 349 338 332 327 320 284 286 298 302 300 260 259 262 259
150 128 101 83 62 52 54 56 59 54 48 53 59 68 65 56 39 30 28 24 18 20 17 10 5 358 352 344 340 339 335 330 322 320 317 315 313 303 307 304 299 288 272
160 131 105 90 72 62 62 62 67 57 49 56 56 59 57 45 39 28 22 14 7 7 10 2 359 352 348 341 335 328 323 316 310 310 307 308 305 310 307 303 304 299 293
165 145 122 99 87 77 71 68 72 61 52 58 56 53 52 47 41 26 16 11 4 358 359 356 352 349 343 337 334 327 321 311 312 308 306 303 296 298 298 299 302 301 298
174 159 137 117 105 94 81 76 75 67 57 61 59 52 50 48 38 26 17 11 0 348 350 348 346 343 339 338 334 327 321 319 314 312 310 309 302 296 293 292 299 302 301
176 162 134 119 113 100 85 82 82 72 60 61 66 54 46 42 32 21 16 6 355 351 346 340 341 339 336 336 334 328 323 323 322 319 313 310 307 300 294 290 295 301 305
168 155 132 121 108 99 89 78 76 74 65 59 57 56 40 33 24 18 10 359 349 345 339 340 338 337 335 334 331 329 325 332 329 321 314 312 309 305 299 298 299 294 294
169 154 133 122 109 95 84 76 70 69 61 57 52 45 33 23 17 13 1 350 343 340 341 339 338 337 335 333 330 327 333 330 323 319 318 316 315 318 318 311 304 298 297
161 141 134 125 110 97 85 77 69 63 56 53 49 38 24 14 10 2 351 345 342 338 337 335 334 334 333 327 322 325 330 321 320 322 325 326 327 321 317 310 302 293 296
147 137 136 127 114 101 87 73 61 56 53 52 46 32 17 8 359 349 344 344 342 338 339 337 334 331 329 323 318 321 320 316 315 321 327 323 317 310 308 304 296 288 300
154 148 139 124 114 102 89 76 60 52 55 51 40 25 7 353 344 338 338 338 336 337 337 334 330 328 326 321 325 326 322 318 316 318 316 314 311 309 308 305 296 300 299
159 153 142 131 122 107 91 80 66 52 52 46 30 7 347 340 339 337 335 334 334 338 329 329 328 328 326 328 329 327 323 320 320 318 312 309 312 313 314 314 313 309 304
165 150 139 137 134 125 115 99 77 49 44 35 10 349 345 343 341 335 334 334 332 329 328 328 327 328 330 327 328 328 321 319 320 318 316 313 310 313 318 314 310 309 309
166 154 152 153 148 143 135 123 98 49 34 14 355 346 341 336 332 333 332 329 325 324 325 324 324 321 320 324 326 324 324 317 314 311 312 315 317 318 307 307 312 310 307
157 154 154 146 137 129 126 124 89 41 18 358 342 334 332 328 325 324 322 319 319 322 321 319 316 313 316 323 323 323 323 312 306 306 307 309 309 312 316 315 314 308 305
158 152 143 132 126 123 122 104 56 24 2 340 329 325 325 323 323 321 318 317 320 321 315 312 310 310 313 319 321 324 317 311 307 306 308 312 312 315 321 321 315 312 310
125 120 116 116 120 115 100 75 32 3 338 322 316 314 315 314 312 307 306 311 314 310 311 310 307 304 307 313 322 324 317 315 314 312 310 315 318 320 323 322 318 316 313
112 114 115 117 115 101 82 55 0 328 311 310 310 311 311 310 302 302 305 308 309 310 311 310 309 302 305 315 322 322 324 318 318 318 317 315 320 324 326 325 320 312 314
114 117 116 113 106 99 87 15 323 305 307 309 309 309 307 308 313 306 303 302 307 311 312 310 309 302 302 315 319 322 323 322 320 317 315 315 323 328 327 324 318 319 321
128 122 125 126 120 98 78 331 304 308 312 314 312 307 304 297 294 296 303 308 308 308 309 308 309 312 311 317 321 320 321 322 322 314 314 321 327 329 326 320 321 324 319
139 131 128 124 104 15 340 295 297 309 317 315 308 302 299 298 295 296 297 302 304 304 307 309 313 315 316 316 315 316 319 321 320 315 317 326 327 325 322 322 320 317 312
139 128 120 116 310 317 314 309 312 320 314 303 296 297 298 297 303 301 293 300 288 297 308 311 313 315 317 316 319 324 323 324 322 326 324 322 323 323 322 321 319 317 315
126 116 112 100 307 319 317 317 317 310 299 299 299 301 302 302 305 306 306 306 310 312 312 312 313 315 314 317 321 324 326 329 332 332 325 323 322 322 322 321 319 317 315
Height
1479 1479 1479 1479 1479 1478 1476 1474 1473 1473 1473 1474 1475 1475 1477 1478 1478 1478 1477 1476 1476 1475 1474 1472 1471 1469 1466 1464 1462 1459 1456 1453 1450 1445 1440 1437 1436 1434 1431 1428 1425 1423 1420
1480 1480 1481 1481 1480 1478 1477 1475 1475 1475 1475 1475 1475 1475 1476 1476 1476 1476 1475 1474 1473 1472 1471 1469 1467 1464 1462 1459 1457 1454 1450 1447 1446 1441 1435 1429 1425 1423 1421 1419 1416 1414 1412
1481 1481 1481 1481 1480 1479 1478 1477 1477 1477 1477 1476 1476 1476 1476 1477 1476 1475 1474 1473 1472 1471 1469 1467 1465 1462 1459 1456 1454 1450 1446 1442 1440 1438 1434 1427 1417 1414 1411 1410 1407 1404 1401
1481 1481 1481 1481 1480 1480 1480 1480 1480 1479 1478 1478 1477 1477 1477 1477 1477 1476 1475 1474 1472 1470 1468 1466 1463 1461 1457 1454 1451 1448 1444 1439 1435 1432 1429 1426 1419 1412 1402 1399 1399 1397 1393
1482 1482 1482 1481 1482 1482 1482 1482 1482 1481 1481 1480 1480 1479 1478 1478 1478 1477 1476 1474 1472 1469 1467 1464 1461 1458 1454 1451 1447 1444 1440 1436 1431 1427 1423 1418 1414 1410 1403 1393 1389 1387 1385
1482 1482 1482 1482 1482 1483 1483 1484 1484 1483 1483 1482 1481 1480 1480 1479 1478 1476 1474 1472 1470 1467 1464 1461 1457 1454 1450 1446 1442 1439 1435 1431 1426 1422 1417 1412 1408 1403 1398 1391 1382 1377 1374
1481 1482 1482 1482 1483 1483 1484 1484 1484 1484 1484 1483 1482 1481 1480 1479 1477 1475 1472 1469 1466 1463 1459 1456 1452 1448 1444 1440 1436 1432 1428 1424 1419 1415 1410 1406 1401 1397 1393 1387 1378 1370 1364
1479 1481 1482 1482 1482 1483 1484 1484 1484 1484 1484 1483 1482 1481 1480 1478 1476 1473 1471 1467 1464 1460 1456 1453 1448 1444 1440 1435 1430 1425 1421 1417 1412 1408 1403 1398 1394 1390 1386 1381 1374 1365 1356
1477 1479 1480 1481 1482 1482 1483 1484 1484 1484 1484 1483 1482 1480 1479 1477 1475 1472 1469 1465 1461 1457 1453 1449 1444 1440 1435 1430 1425 1420 1415 1410 1406 1401 1396 1392 1387 1383 1379 1375 1370 1365 1354
1476 1478 1479 1480 1481 1482 1483 1483 1483 1483 1483 1482 1481 1479 1477 1475 1472 1469 1465 1462 1458 1453 1449 1445 1440 1435 1430 1425 1420 1415 1410 1405 1400 1395 1390 1385 1381 1376 1372 1368 1363 1359 1353
1474 1476 1477 1479 1480 1481 1482 1482 1482 1482 1482 1481 1479 1478 1475 1473 1469 1465 1461 1457 1453 1449 1445 1440 1436 1431 1426 1421 1416 1411 1405 1400 1394 1389 1384 1379 1375 1370 1365 1361 1356 1351 1346
1473 1475 1476 1477 1479 1480 1480 1481 1481 1481 1480 1479 1477 1475 1472 1469 1465 1461 1457 1453 1449 1445 1441 1436 1432 1427 1422 1417 1411 1405 1399 1394 1388 1382 1378 1373 1368 1364 1359 1353 1348 1343 1338
1471 1472 1474 1476 1477 1478 1479 1479 1479 1479 1478 1477 1475 1472 1469 1465 1461 1457 1453 1449 1445 1441 1437 1432 1427 1422 1417 1411 1406 1400 1394 1388 1383 1377 1371 1366 1361 1355 1349 1345 1339 1334 1329
1468 1470 1472 1474 1475 1477 1478 1478 1478 1477 1476 1474 1471 1468 1465 1461 1457 1453 1450 1446 1441 1437 1433 1428 1424 1418 1412 1407 1400 1394 1388 1382 1376 1371 1365 1359 1354 1348 1342 1336 1332 1326 1319
1466 1468 1470 1472 1474 1475 1476 1476 1476 1475 1473 1470 1467 1464 1461 1457 1454 1450 1446 1442 1438 1433 1429 1424 1418 1413 1407 1401 1395 1388 1381 1375 1369 1363 1358 1353 1347 1342 1337 1332 1325 1318 1311
1465 1467 1469 1470 1472 1474 1474 1474 1473 1472 1469 1466 1463 1460 1457 1454 1450 1446 1442 1438 1434 1429 1424 1418 1412 1407 1401 1396 1389 1384 1376 1370 1363 1356 1350 1345 1340 1335 1330 1325 1319 1313 1306
1464 1465 1467 1469 1471 1472 1472 1471 1470 1468 1466 1463 1460 1457 1453 1450 1446 1443 1438 1434 1428 1423 1418 1413 1407 1401 1395 1389 1383 1377 1372 1365 1358 1351 1345 1339 1334 1328 1321 1315 1309 1304 1298
1462 1463 1465 1467 1469 1469 1469 1468 1467 1465 1463 1460 1457 1453 1450 1446 1443 1439 1434 1429 1424 1418 1412 1407 1401 1395 1389 1383 1377 1371 1365 1358 1352 1346 1340 1334 1327 1321 1315 1307 1299 1292 1286
1461 1462 1464 1466 1467 1467 1466 1465 1463 1461 1459 1457 1454 1450 1447 1443 1439 1435 1430 1424 1418 1413 1407 1401 1395 1389 1382 1376 1371 1366 1359 1352 1346 1340 1335 1329 1322 1315 1309 1301 1291 1282 1274
1459 1460 1462 1464 1464 1464 1463 1462 1460 1458 1456 1454 1451 1448 1444 1440 1436 1431 1425 1420 1414 1407 1401 1395 1390 1383 1377 1371 1366 1361 1355 1347 1340 1333 1328 1322 1316 1309 1302 1294 1285 1275 1265
1458 1460 1461 1462 1462 1462 1460 1459 1457 1455 1453 1451 1448 1445 1441 1436 1432 1426 1421 1415 1409 1402 1396 1389 1383 1378 1372 1366 1361 1356 1351 1344 1336 1328 1321 1314 1309 1302 1295 1288 1278 1270 1261
1457 1458 1459 1460 1459 1458 1457 1456 1454 1452 1450 1447 1444 1441 1437 1432 1427 1421 1416 1410 1404 1397 1390 1383 1376 1371 1366 1362 1356 1351 1346 1340 1332 1324 1316 1309 1303 1296 1288 1279 1270 1263 1254
1456 1457 1457 1457 1456 1455 1454 1453 1451 1449 1446 1443 1440 1436 1432 1427 1422 1416 1410 1404 1398 1392 1385 1378 1371 1365 1360 1355 1351 1346 1340 1334 1328 1320 1312 1305 1297 1289 1280 1271 1264 1256 1247
1454 1455 1454 1454 1453 1453 1451 1450 1447 1445 1442 1439 1435 1431 1426 1420 1416 1411 1406 1399 1393 1387 1380 1374 1368 1362 1356 1350 1345 1340 1334 1328 1321 1313 1305 1298 1291 1283 1275 1266 1257 1250 1243
1451 1451 1451 1451 1451 1450 1448 1446 1443 1441 1438 1434 1430 1425 1420 1415 1409 1405 1400 1394 1388 1384 1378 1372 1366 1359 1352 1347 1343 1337 1330 1323 1316 1308 1299 1292 1284 1275 1267 1259 1251 1244 1237
1448 1448 1448 1448 1448 1447 1445 1443 1440 1437 1433 1428 1423 1419 1414 1409 1404 1397 1391 1386 1383 1378 1373 1368 1363 1356 1351 1344 1338 1332 1326 1318 1311 1303 1295 1288 1281 1273 1264 1255 1246 1239 1231